Regional Weather Roundup
Issued by NWS

Home | Current Version | Previous Version | Graphics & Text | Print | Product List | Glossary On
Versions: 1 2 3 4 5 6 7 8 9 10 11 12 13 14 15 16 17 18 19 20 21 22 23 24 25 26 27 28 29 30 31 32 33 34 35 36 37 38 39 40 41 42 43 44 45 46 47 48 49 50
000
ASUS43 KIND 240309
RWRIN

WEATHER ROUNDUP FOR INDIANA
NATIONAL WEATHER SERVICE INDIANAPOLIS IN
1000 PM EST THU FEB 23 2017

NOTE: "FAIR" INDICATES FEW OR NO CLOUDS BELOW 12,000 FEET WITH NO
SIGNIFICANT WEATHER AND/OR OBSTRUCTIONS TO VISIBILITY.

* - STATION DOES NOT REPORT WEATHER SUCH AS PRECIPITATION OR FOG.

+ - STATION NOT QUALITY CONTROLLED BY THE NATIONAL WEATHER SERVICE.
    USE DATA WITH CAUTION...ESPECIALLY DEWPOINT AND RELATIVE
    HUMIDITY OBSERVATIONS.

INZ001>003-010>013-019-020-240400-
NORTHWEST INDIANA

CITY           SKY/WX    TMP DP  RH WIND       PRES   REMARKS
GARY /AIRPORT/ CLOUDY    39  37  93 VRB6      29.74F
KNOX *+        CLOUDY    43  32  65 CALM      29.72R
LA PORTE +     CLOUDY    42  40  96 NW3       29.73R
MICHIGAN CITY+ HVY RAIN  37  37 100 CALM      29.75R
MONTICELLO +   CLOUDY    50  45  81 E5        29.69S
RENSSELAER +   CLOUDY    41  41 100 NE8       29.70F
VALPARAISO     CLOUDY    41  39  93 N6        29.72S

$$

LMZ046-743>745-240400-
SOUTHERN LAKE MICHIGAN

STATION/POSITION TIME  TEMP    WIND        PRES    WAVE
                       AIR SEA DIR/SP/G            HT
                 (UTC) (F)     (DEG/KT/KT) (MB)    (FT)
BURNS HARBOR     0240   37      20/  5/  7 1007.8F
MICHIGAN CITY    0240   36      10/  9/ 10   N/A

$$

INZ004-005-014>016-021>024-240400-
NORTH CENTRAL INDIANA

CITY           SKY/WX    TMP DP  RH WIND       PRES   REMARKS
GOSHEN         CLOUDY    49  44  83 E7        29.72F HAZE
LOGANSPORT +   MOCLDY    52  46  82 E5        29.70F
PERU/GRISSOM   MOCLDY    57  57 100 SE10      29.68F
ROCHESTER +    MOCLDY    52  46  82 NE5       29.72F HAZE
SOUTH BEND     CLOUDY    44  43  96 E6        29.73F
WARSAW +       CLOUDY    50  46  87 E8        29.71F

$$

INZ006>009-017-018-025>027-240400-
NORTHEAST INDIANA

CITY           SKY/WX    TMP DP  RH WIND       PRES   REMARKS
ANGOLA *+      CLOUDY    50  48  93 NE8       29.75F
AUBURN +       CLOUDY    54  45  71 CALM      29.77S
FORT WAYNE     CLOUDY    56  51  84 E5        29.74S
HUNTINGTON +   CLOUDY    56  54  92 CALM      29.74S
KENDALLVILLE + CLOUDY    51  47  88 E9        29.74F

$$

INZ028-029-035-036-043>045-051>053-240400-
WEST CENTRAL INDIANA

CITY           SKY/WX    TMP DP  RH WIND       PRES   REMARKS
LAFAYETTE      MOCLDY    53  49  86 E8        29.68S
TERRE HAUTE    CLOUDY    61  53  75 SE8       29.66F

$$

INZ030>032-037>040-046>048-054>057-064-065-240400-
CENTRAL INDIANA

CITY           SKY/WX    TMP DP  RH WIND       PRES   REMARKS
CP ATTERBURY + MOCLDY    59  54  82 SE6       29.72F
COLUMBUS       MOCLDY    59  57  94 S5        29.73R
FRANKFORT +    CLOUDY    59  55  88 SE10      29.70F
GREENWOOD *+   CLOUDY    60  55  84 SE7       29.72F
INDIANAPOLIS   CLOUDY    60  54  80 SE10      29.69F
-EAGLE CREEK   CLOUDY    62  54  74 SE7       29.69F
KOKOMO +       LGT RAIN  57  54  89 E9        29.71F
MARION +       MOCLDY    57  53  87 E6        29.74S
MT COMFORT *+  MOCLDY    59  54  82 S9        29.72S
SHELBYVILLE    MOCLDY    61  54  77 SE9       29.72S
ZIONSVILLE +   MOCLDY    58  54  86 SE8       29.70F

$$

INZ033-034-041-042-049-050-058-059-240400-
EAST CENTRAL INDIANA

CITY           SKY/WX    TMP DP  RH WIND       PRES   REMARKS
MUNCIE         MOCLDY    57  53  86 SE7       29.73F

$$

INZ060-061-067>069-081>083-085>088-240400-
SOUTHWEST INDIANA

CITY           SKY/WX    TMP DP  RH WIND       PRES   REMARKS
EVANSVILLE     MOCLDY    63  54  72 SE8       29.66F
HUNTINGBURG *+ CLOUDY    63  55  77 SE10      29.69F
WASHINGTON +   CLOUDY    58  52  80 SE5       29.67S

$$

INZ062-063-066-070>080-084-089>092-240400-
SOUTH CENTRAL AND SOUTHEAST INDIANA

CITY           SKY/WX    TMP DP  RH WIND       PRES   REMARKS
BEDFORD +      PTCLDY   N/A N/A N/A SE7       29.70F
BLOOMINGTON    PTCLDY    61  53  75 SE7       29.69F
MADISON *+     MOCLDY    63  54  72 SE7       29.77S
NORTH VERNON + CLEAR     63  57  82 SE3       29.74S
SEYMOUR +      MOCLDY    63  55  77 SE8       29.72S

$$





USA.gov is the U.S. government's official web portal to all federal, state and local government web resources and services.